KLM164 LIRF-EHAM

Flight info

Callsign KLM164
Flight time N/A
Altitude 36000
Route NEMBO DCT GOVGO DCT AOSTA DCT ORSUD DCT MOLUS DCT GILIR DCT PENDU DCT IXILU DCT EPL DCT ROUSY DCT IDOSA DCT KOMOB DCT BUB Y28 HELEN
Aircraft B738/M-SDE2E3FGHIRWXY/LB1

Departure

Time N/A
Airport Rome–Fiumicino Leonardo da Vinci International Airport (LIRF)

Arrival

Time 2026-04-29 13:58
Airport Amsterdam Airport Schiphol (EHAM)
Time Latitude Longitude Altitude Speed Heading
2026-04-29 13:11 47.93450 6.04737 36119 ft 438 kts 356°
2026-04-29 13:11 47.99565 6.04927 36118 ft 438 kts 356°
2026-04-29 13:12 48.05624 6.05115 36126 ft 438 kts 356°
2026-04-29 13:12 48.11730 6.05307 36121 ft 438 kts 356°
2026-04-29 13:13 48.17839 6.05496 36136 ft 439 kts 356°
2026-04-29 13:13 48.23941 6.05688 36138 ft 439 kts 356°
2026-04-29 13:14 48.30059 6.05877 36130 ft 439 kts 356°
2026-04-29 13:14 48.36122 6.06092 36138 ft 439 kts 357°
2026-04-29 13:15 48.42217 6.06369 36138 ft 439 kts 357°
2026-04-29 13:15 48.48338 6.06661 36140 ft 439 kts 357°
2026-04-29 13:16 48.54460 6.06936 36151 ft 440 kts 358°
2026-04-29 13:16 48.60592 6.07210 36147 ft 441 kts 358°
2026-04-29 13:17 48.66677 6.07508 36148 ft 440 kts 358°
2026-04-29 13:17 48.72775 6.07783 36160 ft 439 kts 358°
2026-04-29 13:18 48.78891 6.08072 36162 ft 439 kts 358°
2026-04-29 13:18 48.85018 6.08352 36171 ft 439 kts 359°
2026-04-29 13:19 48.91148 6.08654 36180 ft 440 kts 359°
2026-04-29 13:19 48.97243 6.08934 36197 ft 441 kts 359°
2026-04-29 13:20 49.03385 6.09265 36200 ft 441 kts
2026-04-29 13:20 49.09516 6.09624 36199 ft 441 kts
2026-04-29 13:21 49.15661 6.09926 36198 ft 442 kts
2026-04-29 13:21 49.21805 6.10243 36205 ft 440 kts
2026-04-29 13:22 49.27924 6.10514 36210 ft 440 kts
2026-04-29 13:22 49.34026 6.10813 36213 ft 440 kts
2026-04-29 13:23 49.40145 6.11106 36220 ft 440 kts
2026-04-29 13:23 49.46282 6.11173 36213 ft 441 kts 354°
2026-04-29 13:24 49.52182 6.08730 36227 ft 441 kts 335°
2026-04-29 13:24 49.57365 6.03658 36227 ft 443 kts 324°
2026-04-29 13:25 49.62320 5.98097 36216 ft 443 kts 328°
2026-04-29 13:25 49.70236 5.90677 36221 ft 445 kts 330°
2026-04-29 13:26 49.75501 5.85634 36217 ft 445 kts 327°
2026-04-29 13:26 49.80413 5.79797 36220 ft 445 kts 321°
2026-04-29 13:27 49.85108 5.73525 36218 ft 447 kts 322°
2026-04-29 13:27 49.89974 5.67492 36219 ft 447 kts 323°
2026-04-29 13:28 49.94819 5.61531 36218 ft 447 kts 323°
2026-04-29 13:28 49.99678 5.55509 36228 ft 448 kts 323°
2026-04-29 13:29 50.04562 5.49471 36234 ft 448 kts 323°
2026-04-29 13:29 50.09442 5.43466 36234 ft 445 kts 323°
2026-04-29 13:30 50.14287 5.37467 36254 ft 444 kts 324°
2026-04-29 13:30 50.19273 5.31808 36254 ft 444 kts 327°
2026-04-29 13:31 50.24359 5.26297 36257 ft 445 kts 327°
2026-04-29 13:31 50.29388 5.20769 36263 ft 444 kts 327°
2026-04-29 13:32 50.34464 5.15211 36270 ft 445 kts 327°
2026-04-29 13:32 50.39545 5.09634 36272 ft 447 kts 327°
2026-04-29 13:33 50.44662 5.03993 36274 ft 449 kts 327°
2026-04-29 13:33 50.49783 4.98353 36274 ft 450 kts 327°
2026-04-29 13:34 50.54942 4.92736 36277 ft 451 kts 328°
2026-04-29 13:34 50.60098 4.87134 36279 ft 450 kts 327°
2026-04-29 13:35 50.65074 4.81654 36278 ft 451 kts 327°
2026-04-29 13:35 50.70224 4.75972 36285 ft 452 kts 327°
2026-04-29 13:36 50.75377 4.70264 36279 ft 452 kts 327°
2026-04-29 13:36 50.80527 4.64542 36285 ft 452 kts 327°
2026-04-29 13:37 50.85658 4.58833 36292 ft 449 kts 328°
2026-04-29 13:37 50.90620 4.53034 35915 ft 436 kts 321°
2026-04-29 13:38 50.92722 4.49529 35147 ft 444 kts 311°
2026-04-29 13:38 50.94526 4.45529 34523 ft 457 kts 306°
2026-04-29 13:38 50.96199 4.41164 33853 ft 466 kts 303°
2026-04-29 13:38 50.97795 4.36640 33153 ft 471 kts 302°
2026-04-29 13:39 50.99389 4.32059 32451 ft 474 kts 302°
2026-04-29 13:39 51.01006 4.27465 31753 ft 478 kts 303°
2026-04-29 13:39 51.02645 4.22854 31062 ft 482 kts 303°
2026-04-29 13:39 51.04303 4.18218 30357 ft 485 kts 303°
2026-04-29 13:40 51.05981 4.13519 29662 ft 489 kts 303°
2026-04-29 13:40 51.07662 4.08820 28962 ft 489 kts 304°
2026-04-29 13:40 51.09549 4.04357 28257 ft 482 kts 312°
2026-04-29 13:40 51.11739 4.00497 27565 ft 470 kts 320°
2026-04-29 13:41 51.14179 3.97115 26877 ft 461 kts 325°
2026-04-29 13:41 51.16730 3.94081 26153 ft 454 kts 328°
2026-04-29 13:41 51.19334 3.91302 25462 ft 448 kts 331°
2026-04-29 13:41 51.22078 3.89080 24744 ft 437 kts 342°
2026-04-29 13:42 51.24965 3.87725 24049 ft 430 kts 351°
2026-04-29 13:42 51.27903 3.86970 23353 ft 423 kts 356°
2026-04-29 13:42 51.30815 3.86599 22683 ft 418 kts
2026-04-29 13:42 51.33587 3.86514 22036 ft 413 kts
2026-04-29 13:43 51.36435 3.86542 21384 ft 407 kts
2026-04-29 13:43 51.39261 3.86546 20738 ft 403 kts
2026-04-29 13:43 51.42047 3.86494 20102 ft 399 kts
2026-04-29 13:43 51.44820 3.86416 19490 ft 396 kts
2026-04-29 13:44 51.47580 3.86345 18880 ft 398 kts
2026-04-29 13:44 51.50298 3.86287 18275 ft 392 kts
2026-04-29 13:44 51.53025 3.86238 17683 ft 390 kts
2026-04-29 13:44 51.55719 3.86181 17093 ft 386 kts
2026-04-29 13:45 51.58410 3.86118 16503 ft 385 kts
2026-04-29 13:45 51.61080 3.86056 15926 ft 382 kts
2026-04-29 13:45 51.63725 3.85992 15358 ft 377 kts
2026-04-29 13:45 51.66343 3.85922 14800 ft 374 kts
2026-04-29 13:46 51.68939 3.85942 14231 ft 371 kts
2026-04-29 13:46 51.71487 3.86610 13913 ft 371 kts 17°
2026-04-29 13:46 51.73840 3.88025 13453 ft 353 kts 28°
2026-04-29 13:46 51.75860 3.90100 12963 ft 336 kts 40°
2026-04-29 13:47 51.77536 3.92551 12466 ft 323 kts 46°
2026-04-29 13:47 51.79112 3.95054 11938 ft 314 kts 45°
2026-04-29 13:47 51.80691 3.97417 11436 ft 305 kts 44°
2026-04-29 13:47 51.82249 3.99686 10929 ft 298 kts 44°
2026-04-29 13:48 51.83759 4.01937 10427 ft 291 kts 45°
2026-04-29 13:48 51.85220 4.04153 9960 ft 284 kts 46°
2026-04-29 13:48 51.86635 4.06280 9706 ft 271 kts 45°
2026-04-29 13:48 51.87987 4.08295 9641 ft 262 kts 46°
2026-04-29 13:49 51.89318 4.10296 9575 ft 260 kts 46°
2026-04-29 13:49 51.90640 4.12295 9508 ft 260 kts 46°
2026-04-29 13:49 51.92002 4.14232 9364 ft 261 kts 43°
2026-04-29 13:49 51.93420 4.16070 9095 ft 265 kts 42°
2026-04-29 13:50 51.94856 4.17951 8654 ft 266 kts 43°
2026-04-29 13:50 51.96268 4.19849 8309 ft 265 kts 43°
2026-04-29 13:50 51.97694 4.21746 7982 ft 263 kts 43°
2026-04-29 13:50 51.99100 4.23614 7651 ft 260 kts 43°
2026-04-29 13:51 52.00496 4.25470 7329 ft 259 kts 43°
2026-04-29 13:51 52.01887 4.27310 6997 ft 257 kts 43°
2026-04-29 13:51 52.03163 4.29010 6704 ft 256 kts 43°
2026-04-29 13:51 52.04584 4.30909 6369 ft 255 kts 43°
2026-04-29 13:52 52.05961 4.32738 6050 ft 255 kts 43°
2026-04-29 13:52 52.07322 4.34535 5721 ft 255 kts 43°
2026-04-29 13:52 52.08698 4.36347 5402 ft 254 kts 43°
2026-04-29 13:52 52.10080 4.38178 5110 ft 252 kts 43°
2026-04-29 13:53 52.10976 4.39383 4954 ft 251 kts 43°
2026-04-29 13:53 52.12718 4.41712 4587 ft 240 kts 43°
2026-04-29 13:53 52.14007 4.43410 4356 ft 238 kts 43°
2026-04-29 13:53 52.15288 4.45112 4169 ft 238 kts 43°
2026-04-29 13:54 52.16563 4.46814 3963 ft 236 kts 43°
2026-04-29 13:54 52.17409 4.47950 3823 ft 236 kts 43°
2026-04-29 13:54 52.18657 4.49602 3607 ft 225 kts 42°
2026-04-29 13:54 52.19839 4.51248 3342 ft 222 kts 49°
2026-04-29 13:55 52.20771 4.53202 3007 ft 215 kts 59°
2026-04-29 13:55 52.21580 4.55208 2672 ft 207 kts 58°
2026-04-29 13:55 52.22370 4.57127 2394 ft 205 kts 58°
2026-04-29 13:55 52.23176 4.59141 2102 ft 214 kts 58°
2026-04-29 13:56 52.23973 4.61158 1764 ft 212 kts 58°
2026-04-29 13:56 52.24749 4.63121 1469 ft 200 kts 59°
2026-04-29 13:56 52.25478 4.64975 1201 ft 189 kts 58°
2026-04-29 13:56 52.26178 4.66707 1010 ft 178 kts 58°
2026-04-29 13:57 52.26830 4.68331 765 ft 167 kts 59°
2026-04-29 13:57 52.27433 4.69876 562 ft 156 kts 60°
2026-04-29 13:57 52.27982 4.71346 323 ft 147 kts 57°
2026-04-29 13:57 52.28535 4.72762 124 ft 143 kts 56°
2026-04-29 13:58 52.29038 4.74059 1 ft 125 kts 55°
2026-04-29 13:58 52.29386 4.74961 -2 ft 69 kts 56°
2026-04-29 13:58 52.29531 4.75339 -3 ft 18 kts 59°
2026-04-29 13:58 52.29607 4.75541 -2 ft 24 kts 57°
2026-04-29 13:59 52.29723 4.75747 -3 ft 21 kts 33°
2026-04-29 13:59 52.29815 4.75831 -2 ft 17 kts 28°
2026-04-29 13:59 52.29928 4.75929 -2 ft 16 kts 28°
2026-04-29 13:59 52.30006 4.76030 -2 ft 13 kts 52°
2026-04-29 14:00 52.30055 4.76157 -2 ft 14 kts 58°
2026-04-29 14:00 52.30112 4.76302 -2 ft 16 kts 58°
2026-04-29 14:00 52.30178 4.76474 -2 ft 17 kts 58°
2026-04-29 14:00 52.30248 4.76657 -2 ft 19 kts 57°
2026-04-29 14:01 52.30319 4.76843 -2 ft 20 kts 58°
2026-04-29 14:01 52.30382 4.77010 -2 ft 15 kts 58°
2026-04-29 14:01 52.30443 4.77167 -2 ft 18 kts 58°
2026-04-29 14:01 52.30506 4.77339 -2 ft 12 kts 59°
2026-04-29 14:02 52.30556 4.77467 -2 ft 12 kts 50°
2026-04-29 14:02 52.30619 4.77531 -1 ft 12 kts 31°
2026-04-29 14:02 52.30703 4.77591 -2 ft 15 kts 11°
2026-04-29 14:02 52.30818 4.77605 -2 ft 18 kts
2026-04-29 14:03 52.30937 4.77618 -2 ft 16 kts
2026-04-29 14:03 52.31020 4.77569 -2 ft 13 kts 313°
2026-04-29 14:03 52.31070 4.77452 -1 ft 9 kts 289°
2026-04-29 14:03 52.31077 4.77369 -1 ft 5 kts 268°
2026-04-29 14:04 52.31069 4.77337 -1 ft 1 kts 227°
2026-04-29 14:04 52.31067 4.77336 -1 ft 0 kts 213°
2026-04-29 14:04 52.31064 4.77336 -1 ft 1 kts 193°
2026-04-29 14:04 52.31052 4.77342 -1 ft 3 kts 158°
2026-04-29 14:05 52.31037 4.77355 -1 ft 0 kts 154°
2026-04-29 14:05 52.31024 4.77361 -1 ft 4 kts 168°
2026-04-29 14:05 52.31007 4.77362 -1 ft 2 kts 180°
2026-04-29 14:05 52.30998 4.77362 -1 ft 0 kts 181°